Location: Madrid
(40.4000°N, 3.6830°W)
Time: 00:22:54
(UTC+02:00)

ISS - Pass Details

Date: 03 August 2020
Orbit: 418 x 420 km, 51.6° (Epoch: 08 August)

Event Time Altitude Azimuth Distance (km) Brightness Sun altitude
Rises 21:58:06 0° 307° (NW) 2,369 2.5 -6.2°
Reaches altitude 10° 22:00:12 10° 307° (NW) 1,502 0.8 -6.5°
Maximum altitude 22:03:35 86° 37° (NE) 424 -3.7 -7.1°
Enters shadow 22:06:56 10° 126° (SE) 1,493 -1.6 -7.6°
